TimeEDT,TemperatureF,Dew PointF,Humidity,Sea Level PressureIn,VisibilityMPH,Wind Direction,Wind SpeedMPH,Gust SpeedMPH,PrecipitationIn,Events,Conditions,WindDirDegrees,DateUTC
12:53 AM,28.9,25.0,85,30.05,10.0,Calm,Calm,-,N/A,,Clear,0,2013-10-28 04:53:00
1:53 AM,28.0,24.1,85,30.05,10.0,Calm,Calm,-,N/A,,Scattered Clouds,0,2013-10-28 05:53:00
2:53 AM,30.9,27.0,85,30.04,10.0,Calm,Calm,-,N/A,,Overcast,0,2013-10-28 06:53:00
3:53 AM,33.1,28.0,82,30.04,10.0,Calm,Calm,-,N/A,,Overcast,0,2013-10-28 07:53:00
4:53 AM,34.0,28.9,82,30.04,10.0,Calm,Calm,-,N/A,,Overcast,0,2013-10-28 08:53:00
5:53 AM,34.0,30.0,85,30.05,10.0,Calm,Calm,-,N/A,,Overcast,0,2013-10-28 09:53:00
6:53 AM,36.0,30.9,82,30.06,10.0,South,9.2,-,N/A,,Overcast,170,2013-10-28 10:53:00
7:53 AM,37.0,30.9,79,30.07,10.0,South,8.1,-,N/A,,Mostly Cloudy,190,2013-10-28 11:53:00
8:53 AM,43.0,30.9,62,30.08,10.0,South,11.5,-,N/A,,Mostly Cloudy,190,2013-10-28 12:53:00
9:53 AM,45.0,28.9,53,30.06,10.0,South,15.0,-,N/A,,Mostly Cloudy,190,2013-10-28 13:53:00
10:53 AM,48.0,30.9,52,30.06,10.0,SW,11.5,-,N/A,,Overcast,220,2013-10-28 14:53:00
11:53 AM,51.1,32.0,48,30.06,10.0,SSW,9.2,-,N/A,,Mostly Cloudy,210,2013-10-28 15:53:00
12:53 PM,51.1,30.9,46,30.08,10.0,WNW,15.0,21.9,N/A,,Overcast,300,2013-10-28 16:53:00
1:53 PM,48.9,30.9,50,30.13,10.0,NW,12.7,19.6,0.00,,Mostly Cloudy,310,2013-10-28 17:53:00
2:53 PM,46.9,30.9,54,30.18,10.0,NNW,9.2,17.3,N/A,,Overcast,340,2013-10-28 18:53:00
3:53 PM,46.0,26.1,46,30.20,10.0,NNW,8.1,20.7,N/A,,Overcast,330,2013-10-28 19:53:00
4:53 PM,46.0,25.0,44,30.23,10.0,North,15.0,20.7,N/A,,Scattered Clouds,350,2013-10-28 20:53:00
5:53 PM,42.1,21.9,45,30.27,10.0,North,9.2,-,N/A,,Clear,10,2013-10-28 21:53:00
6:53 PM,36.0,21.9,57,30.32,10.0,Calm,Calm,-,N/A,,Clear,0,2013-10-28 22:53:00
7:53 PM,32.0,23.0,69,30.33,10.0,Calm,Calm,-,N/A,,Clear,0,2013-10-28 23:53:00
8:53 PM,30.0,21.9,72,30.35,10.0,Calm,Calm,-,N/A,,Clear,0,2013-10-29 00:53:00
9:53 PM,28.0,19.9,72,30.37,10.0,Calm,Calm,-,N/A,,Clear,0,2013-10-29 01:53:00
10:53 PM,25.0,19.9,81,30.38,10.0,Calm,Calm,-,N/A,,Clear,0,2013-10-29 02:53:00
11:53 PM,25.0,19.9,81,30.38,10.0,Calm,Calm,-,N/A,,Clear,0,2013-10-29 03:53:00